Location: Fauquembergues
(50.6005°N, 2.0987°E)
Time: 21:03:17
(UTC+00:00)

Cosmos 1536 - Pass Details

Date: 14 July 2020
Orbit: 539 x 559 km, 82.5° (Epoch: 14 August)

Event Time Altitude Azimuth Distance (km) Brightness Sun altitude
Exits shadow 02:02:34 13° 171° (S) 1,637 4.8 -12.7°
Maximum altitude 02:06:01 55° 95° (E) 673 3.4 -12.4°
Drops below altitude 10° 02:10:00 10° 18° (NNE) 1,849 6.9 -12.1°
Sets 02:12:12 0° 14° (NNE) 2,746 8.0 -11.9°
